Presure
144 149 102 141 151 143 141 143 136 144 149 147 149 139 141 110 153 152 153 151 147 153 159 159 161 156 161 166 156 160 135 160 141 146 157 144 172 171 166 160 160 154 158 171 166 175 169
159 143 139 154 152 143 142 137 138 142 112 141 143 117 148 152 150 147 154 148 155 153 154 161 169 153 160 158 169 159 171 154 140 152 167 177 172 170 168 166 145 173 147 175 164 170 180
147 140 157 147 156 149 146 146 148 152 144 131 145 133 154 135 151 141 142 149 155 153 146 164 160 155 154 156 154 170 150 160 169 160 162 162 132 161 170 147 168 139 169 162 166 156 166
151 148 160 143 150 146 152 156 152 148 148 149 143 155 153 150 127 137 141 159 130 163 152 143 162 155 160 160 155 154 164 161 161 158 132 161 183 177 167 175 171 165 169 165 155 163 152
149 143 149 141 149 144 146 142 150 158 149 156 156 149 140 151 136 145 152 157 143 148 163 160 134 158 146 154 165 160 170 164 128 166 153 171 156 175 161 161 165 159 156 163 170 160 165
166 161 160 154 146 143 143 152 146 131 152 159 152 149 156 161 151 154 147 167 149 155 139 160 148 162 162 164 160 173 171 172 164 162 169 153 167 158 177 164 148 174 175 159 169 171 172
172 162 168 160 166 155 143 163 148 157 150 151 140 152 154 145 134 157 165 163 135 168 159 160 140 159 142 163 132 186 128 179 170 168 175 172 175 172 171 176 170 168 169 162 161 168 167
186 164 166 171 165 164 165 157 104 161 163 157 149 153 126 153 132 151 162 166 138 153 146 123 148 143 130 169 145 166 154 176 157 174 166 177 160 164 173 177 176 171 176 161 166 177 156
167 170 166 165 165 153 175 165 164 160 160 167 156 157 164 158 163 154 157 134 146 143 148 145 145 168 136 149 132 174 132 158 161 146 133 163 167 178 162 161 164 161 175 168 175 160 180
167 157 162 173 158 166 170 178 172 156 165 160 160 160 142 148 153 150 157 158 135 151 156 153 152 163 153 158 155 169 144 139 181 162 175 169 131 163 170 160 158 178 142 146 174 165 158
162 139 167 153 169 162 161 156 158 162 163 161 158 158 155 152 150 139 149 162 157 156 145 162 149 129 166 162 142 168 162 141 150 167 169 178 145 146 171 142 189 175 153 185 149 160 142
161 175 160 160 161 174 166 156 151 161 158 151 167 160 155 156 164 163 150 153 149 155 154 165 160 166 164 152 147 162 133 152 177 163 156 173 178 168 166 148 163 152 140 146 158 159 176
162 161 167 149 177 162 154 165 170 164 152 171 158 151 148 161 150 149 157 158 161 156 152 158 159 169 168 161 158 160 137 167 143 139 174 133 163 151 178 170 159 146 168 164 158 174 162
173 152 168 164 162 171 159 150 161 164 166 163 161 163 162 153 154 161 155 148 155 148 151 154 148 162 153 135 161 152 145 156 137 161 160 174 168 169 178 161 164 160 157 162 166 183 148
147 169 153 164 149 166 156 161 154 159 144 162 163 158 164 155 153 161 150 161 152 155 157 155 158 154 151 157 151 154 151 156 140 174 166 171 146 162 170 173 171 166 180 174 182 153 172
168 164 145 158 162 172 178 170 160 157 157 152 158 152 158 166 167 165 167 164 160 153 155 150 152 161 163 151 161 163 157 151 158 158 161 154 146 164 163 152 155 165 168 171 168 179 179
168 180 148 160 139 143 164 155 148 150 168 163 142 146 155 162 155 170 170 163 155 145 148 165 165 163 155 159 160 155 161 161 160 152 161 143 160 142 170 171 167 158 165 159 164 160 170
172 145 168 164 150 170 183 159 157 166 141 173 152 161 147 141 144 161 157 151 153 157 160 158 160 159 158 157 163 167 168 156 157 151 163 157 160 167 164 158 157 168 150 161 162 169 183
142 189 146 174 166 160 153 153 178 171 165 165 182 154 155 142 152 158 150 155 154 141 148 155 163 158 146 148 158 168 163 156 167 157 168 167 159 157 155 169 168 164 151 158 172 166 165
147 158 175 157 191 152 170 152 180 154 163 162 193 152 155 174 146 155 159 161 162 150 155 165 159 155 150 164 158 162 153 170 162 162 162 161 150 162 173 161 169 145 165 167 159 173 155
193 179 179 183 190 160 162 170 166 174 164 184 180 160 186 190 157 181 165 162 153 161 160 162 152 153 160 163 169 167 158 160 158 159 159 174 168 166 155 168 166 174 166 158 171 175 168
181 188 168 163 177 163 178 162 173 182 164 187 166 159 149 167 169 161 175 152 171 175 167 147 158 168 160 169 154 170 159 158 163 167 159 154 150 172 154 171 169 162 151 164 109 82 174
199 190 192 187 180 183 171 185 182 176 160 183 189 165 169 159 193 153 147 195 186 166 172 170 150 164 166 148 152 160 177 155 174 177 157 171 150 168 171 155 171 171 160 130 167 168 168
200 192 190 186 183 189 184 188 179 179 176 159 193 191 159 188 172 147 177 169 162 192 172 182 167 163 171 155 158 161 188 178 177 178 149 178 169 164 159 169 179 172 175 196 121 182 170
193 203 202 203 193 191 195 183 185 184 174 190 187 162 197 183 171 179 182 175 161 195 184 164 175 178 179 156 181 174 150 147 185 158 170 160 164 164 168 160 182 196 92 88 190 197 151
211 198 207 204 213 206 202 192 193 188 189 182 186 172 197 163 163 184 162 185 184 172 193 168 156 167 157 160 171 171 197 164 178 151 189 175 196 194 201 181 207 198 194 172 191 198 186
229 220 212 216 213 203 206 203 195 209 198 182 179 193 188 195 180 169 190 201 189 167 186 190 194 208 179 176 181 165 167 180 176 162 176 160 187 176 180 191 197 131 196 199 197 195 188
287 263 233 229 220 222 215 218 203 213 190 205 204 181 204 205 203 199 195 176 194 211 172 167 166 187 207 181 180 163 168 180 155 172 188 178 167 179 202 184 161 190 208 198 189 198 193
426 419 309 284 278 252 236 233 227 217 213 213 212 206 183 203 204 201 200 216 212 219 178 211 215 199 176 213 181 182 214 209 181 180 200 195 189 176 188 191 215 210 191 218 219 214 198
Wind_Speed
57 55 48 55 49 52 51 49 48 44 39 38 34 42 36 29 31 29 30 31 34 35 35 33 31 30 33 38 33 35 37 31 34 31 25 33 30 29 22 24 22 19 19 22 10 24 23
56 58 49 52 53 57 55 55 54 50 38 43 40 35 40 30 30 34 38 37 33 34 36 36 35 33 32 33 39 33 38 35 36 33 34 33 28 30 27 27 32 25 35 24 17 21 32
62 60 56 59 55 57 58 55 51 49 50 55 42 51 39 48 37 40 41 37 36 34 38 34 35 36 33 34 35 40 35 36 39 38 38 33 35 32 30 32 28 39 28 34 25 30 26
65 66 61 64 60 62 59 57 55 52 51 50 48 45 42 40 53 37 44 40 48 40 39 44 34 35 36 38 39 37 34 34 36 40 36 38 37 37 32 32 30 31 31 31 34 31 35
69 67 67 66 64 65 63 60 58 56 55 53 50 48 46 47 40 47 45 41 49 36 38 36 50 34 40 41 38 39 37 32 37 38 43 43 40 39 35 32 35 32 30 31 42 31 33
70 72 72 73 68 67 65 62 63 58 58 58 56 53 51 51 47 48 45 44 41 43 47 38 39 44 42 39 42 38 38 36 35 35 41 42 42 39 41 38 42 39 39 34 39 42 39
68 73 69 71 67 69 69 64 66 64 63 62 62 59 56 53 59 52 54 49 56 45 43 45 39 42 47 42 48 44 40 39 36 38 40 42 44 44 44 42 40 43 41 38 39 42 38
65 74 71 69 70 70 68 70 58 65 64 64 65 64 63 57 63 55 54 52 56 47 52 45 45 60 42 45 47 40 40 40 38 40 39 42 39 46 49 48 47 44 45 41 43 48 34
75 73 75 71 71 76 68 70 68 67 65 63 67 64 62 62 59 57 58 67 56 52 51 55 54 59 64 53 61 48 57 41 43 45 51 42 45 48 43 47 43 41 48 43 49 44 55
71 79 76 69 75 71 70 67 68 71 66 67 66 64 68 64 63 62 61 60 66 58 58 61 61 63 57 52 50 51 56 57 47 40 53 42 56 48 47 46 42 54 48 45 53 41 42
80 75 74 81 73 75 74 75 73 70 69 68 69 67 68 67 67 66 65 65 68 67 58 67 63 70 64 58 60 59 53 65 51 56 57 55 55 56 49 54 56 53 45 57 46 43 51
85 73 82 81 75 67 72 76 78 76 75 73 70 72 72 73 72 72 71 70 68 69 66 69 73 75 68 58 66 61 67 53 62 59 56 62 62 56 53 57 49 49 58 52 55 48 62
87 85 81 88 72 77 81 77 72 76 78 74 77 76 76 76 78 74 74 71 72 69 73 74 75 76 74 71 64 67 70 69 66 65 67 59 59 52 67 58 51 61 60 54 52 66 53
97 90 80 85 80 76 83 85 77 73 74 75 81 79 79 82 83 83 80 73 71 70 77 79 72 81 66 72 79 68 64 68 71 73 63 71 71 69 73 60 68 55 54 60 60 75 50
93 99 94 90 90 84 90 83 85 80 86 77 78 84 81 88 88 87 78 79 74 77 78 84 86 75 74 82 70 74 65 72 74 83 80 72 64 63 73 73 73 71 77 80 84 59 61
108 101 91 97 93 78 82 82 89 82 91 83 89 78 83 82 90 89 84 74 77 83 83 82 87 91 89 81 88 85 79 74 83 82 84 63 60 70 74 61 76 74 82 82 73 87 87
111 114 100 106 87 96 96 85 92 78 88 92 86 85 88 88 92 86 76 78 82 78 84 90 90 89 90 92 90 78 88 89 90 79 89 74 82 61 88 84 81 71 83 74 80 66 78
122 101 108 101 104 103 98 98 98 91 88 89 98 98 85 84 81 93 85 87 90 86 89 91 93 93 96 97 96 94 90 91 89 82 95 92 92 94 87 75 80 91 62 84 83 91 102
91 128 104 113 104 104 107 104 98 92 97 92 95 99 103 87 101 100 90 91 91 76 89 95 96 96 83 81 94 98 99 95 99 93 99 100 91 80 79 99 99 91 72 86 102 88 92
106 117 120 107 121 111 107 108 105 103 98 100 105 105 107 102 92 108 110 108 105 95 99 103 101 100 92 104 101 101 87 107 101 105 106 102 70 99 104 99 98 63 102 105 76 104 84
131 124 118 124 121 118 115 110 110 105 111 114 99 109 99 102 106 106 111 111 105 107 109 110 94 100 112 111 110 111 103 102 100 99 101 113 110 107 77 114 106 109 100 83 108 118 92
124 123 122 122 119 117 114 122 113 116 106 115 106 108 108 110 108 113 111 104 117 115 118 85 111 117 113 120 93 115 107 103 109 111 102 80 68 117 78 123 120 88 68 108 31 27 115
137 131 130 130 122 123 124 121 120 118 113 113 122 109 117 114 114 109 93 114 114 118 119 123 91 112 118 89 91 112 123 92 119 117 88 119 80 118 115 83 113 88 108 64 112 105 101
145 135 131 130 130 137 127 134 123 122 125 114 126 125 106 121 119 99 115 124 96 118 124 122 124 125 123 100 104 105 121 127 126 121 77 122 113 105 83 113 108 101 121 126 60 116 114
130 145 145 149 142 141 143 133 136 130 126 133 132 118 130 124 123 120 121 126 116 125 117 109 126 126 129 94 131 119 77 76 127 90 122 83 94 104 108 82 125 128 26 14 103 127 81
156 135 150 150 156 153 148 138 140 136 136 131 133 130 136 114 112 128 124 126 123 113 124 124 96 123 99 112 136 133 129 103 132 76 135 131 132 131 137 129 135 130 129 100 132 125 129
168 161 151 158 160 147 155 153 142 153 143 132 131 146 143 145 135 123 140 142 129 128 131 130 132 132 125 133 143 114 126 137 137 92 132 93 132 122 131 134 136 70 140 142 138 120 116
152 164 165 168 160 171 163 167 144 158 135 155 154 125 158 156 152 150 141 131 139 145 116 121 113 121 135 143 142 107 121 148 90 119 141 130 104 110 144 129 101 131 148 143 133 140 134
67 73 137 159 153 171 167 167 172 167 163 166 163 154 128 147 149 148 148 157 146 149 130 144 149 139 136 139 143 147 144 150 139 135 139 136 141 120 140 142 143 147 137 145 145 148 137
Wind_Direction
262 263 267 264 263 265 269 270 276 275 278 279 282 286 289 286 297 291 299 297 305 306 313 314 313 310 318 322 316 309 299 318 303 304 306 313 332 326 319 311 321 311 324 328 286 339 320
262 262 268 262 263 262 264 269 272 272 270 275 280 276 288 284 284 284 295 301 299 305 303 309 314 303 312 310 317 316 320 308 300 312 317 324 327 324 320 319 308 329 304 334 293 329 351
261 259 259 261 262 265 267 268 270 272 272 277 273 279 281 281 278 276 280 288 297 297 294 302 304 302 304 307 306 314 300 312 310 309 311 311 305 315 320 302 310 301 328 313 315 293 322
259 261 259 263 264 265 266 268 270 270 274 278 277 280 279 278 280 285 286 290 292 294 299 291 301 301 301 303 300 302 304 302 305 304 298 309 310 311 311 319 318 316 320 314 290 316 306
258 258 262 262 263 266 269 271 274 271 273 275 275 276 273 281 281 277 282 289 284 283 296 295 292 298 293 299 301 298 302 299 297 301 299 311 304 310 313 312 307 312 305 315 317 303 312
254 256 259 263 263 265 267 268 271 269 273 272 275 276 278 278 280 280 277 283 284 281 277 290 284 294 300 298 299 303 299 300 292 293 307 297 306 304 307 305 303 311 311 316 313 315 317
253 255 254 258 260 261 264 264 268 270 271 273 270 271 274 269 270 283 285 286 286 286 292 292 291 294 285 302 292 310 293 307 306 298 306 308 307 308 310 305 305 307 311 308 315 314 319
258 255 255 255 257 259 259 263 270 265 266 269 270 274 273 276 276 277 279 285 275 287 283 283 279 284 289 301 295 307 296 307 292 309 304 299 301 310 312 304 303 308 303 313 315 306 311
253 256 259 256 256 260 260 260 259 262 264 265 268 271 274 277 279 280 284 272 275 286 285 272 290 297 283 290 287 308 293 298 298 284 292 298 304 304 306 297 307 305 306 304 307 308 299
253 255 256 258 257 262 263 265 262 262 265 266 268 271 269 273 279 278 284 284 275 282 285 289 287 293 285 290 290 301 276 288 298 296 307 305 292 301 304 297 297 303 288 293 314 311 307
256 263 254 259 254 259 260 261 265 266 266 267 269 270 271 272 274 270 275 277 281 283 286 289 288 280 291 294 278 301 296 283 282 307 308 300 286 290 302 287 301 303 292 299 291 309 289
253 250 254 257 257 256 256 261 264 265 265 266 265 267 270 271 272 270 275 277 277 283 288 288 287 288 291 284 284 298 281 288 301 302 296 298 304 300 299 288 302 285 284 286 304 302 311
251 254 250 263 258 258 262 261 264 263 266 263 265 268 269 269 271 271 273 274 278 284 285 285 284 287 290 293 291 290 276 298 284 286 303 289 295 279 301 295 294 293 303 291 301 308 297
260 257 254 250 252 253 258 263 261 260 261 262 266 265 265 268 269 270 272 275 279 278 280 282 278 286 285 272 296 293 277 291 275 300 296 300 301 302 300 292 294 296 287 297 299 303 279
257 257 256 252 261 258 257 253 259 260 270 262 263 265 266 266 269 268 271 273 276 277 277 278 281 284 286 290 289 292 285 294 275 296 298 296 292 298 303 304 306 304 308 308 308 279 311
256 254 260 260 251 254 258 257 258 259 260 264 264 265 266 265 264 265 267 270 270 272 274 279 282 283 282 287 289 288 292 294 295 294 297 291 275 294 304 286 296 304 307 308 307 307 309
256 255 256 259 262 264 253 257 264 258 260 257 268 270 265 264 269 266 268 266 270 273 275 273 274 277 282 282 284 288 289 289 290 292 296 285 299 274 299 297 301 297 303 305 304 302 308
252 258 255 254 256 259 261 256 255 257 266 259 262 259 263 269 271 267 269 271 273 271 271 274 274 277 279 281 281 281 282 287 287 292 289 294 295 294 299 300 299 295 292 302 302 304 300
254 251 258 253 256 253 256 257 260 254 253 259 260 261 263 265 270 268 272 267 267 271 274 276 272 274 278 282 283 278 282 282 283 288 284 285 292 295 297 290 291 297 297 299 295 303 306
253 251 251 254 251 252 256 257 258 258 257 263 265 264 262 257 268 268 266 266 265 272 271 269 274 276 276 276 280 280 278 279 283 284 287 288 290 290 285 293 290 282 292 294 299 300 290
250 250 250 252 254 252 255 254 257 258 253 263 259 255 261 258 264 260 261 265 271 266 269 270 274 275 275 276 272 275 282 281 283 285 286 281 285 288 283 288 292 288 296 298 296 297 301
247 251 247 249 253 250 253 250 255 260 258 258 252 258 262 256 257 260 260 269 262 262 264 269 273 267 272 270 275 272 280 281 280 278 283 288 287 282 291 284 287 295 297 295 282 251 297
254 252 253 255 252 254 252 257 256 255 254 258 257 255 255 262 260 265 267 264 260 263 261 262 272 271 267 268 274 276 272 281 275 272 279 277 284 282 281 286 283 291 293 289 292 295 296
252 252 252 250 252 256 255 254 252 252 255 256 262 259 254 258 254 265 264 259 262 263 262 260 263 268 266 274 275 275 272 272 274 273 280 275 281 285 284 285 280 285 286 281 278 289 286
250 253 253 252 251 254 255 253 256 254 251 258 260 257 256 253 253 258 256 258 266 266 261 268 260 263 265 272 266 269 272 271 273 280 281 277 283 288 290 282 289 282 268 314 284 286 282
251 250 254 255 253 254 256 252 254 253 255 254 255 253 257 260 259 254 262 258 264 262 262 267 273 266 274 274 268 272 267 279 272 272 271 281 275 278 277 289 281 283 283 291 289 292 288
248 249 251 252 253 253 255 255 253 254 254 257 257 258 258 257 257 258 259 261 258 262 263 258 261 264 263 266 262 278 279 272 275 278 279 280 279 285 285 283 281 279 284 284 288 285 294
247 246 247 249 251 252 254 255 251 255 255 257 258 259 260 261 261 259 257 258 261 263 263 267 268 266 261 261 265 274 277 271 268 275 272 277 281 281 277 283 279 286 279 284 288 287 293
251 252 247 246 248 249 249 254 252 253 255 256 257 257 258 259 260 262 263 264 262 264 265 265 261 260 267 262 265 266 266 263 272 276 271 272 274 281 279 281 278 278 286 280 281 283 290